STARLINK-1775 (46681 NORAD) Tracking and Keplerian Element Data

This shows tracking and keplerian element data for the satellite.

Feedback or suggestion? Click here.




ElementValue
Catalog46681
NameSTARLINK-1775
Epoch Orbit1452
Epoch Day17.91667824
Epoch Year2021
RAAN41.7825
Inclination53.053
Eccentricity0.0001637
Argument of Perigee57.465
Mean Anonmoly216.8756
Mean Motion15.06376169
Decay Rate0.00040717
L11 46681U 20073M 21017.91667824 .00040717 00000-0 27384-2 0 9996
L22 46681 53.0530 41.7825 0001637 57.4650 216.8756 15.06376169 14525

Live tracking and technical data element details for STARLINK-1775 (NORAD 46681). STARLINK-1775 can be tracked NOW for your location showing map with azimuth and elevation plus other details from your city location.

Track the satellite on the map from your city or location and see movement details for azimuth, elevation, latitude, longitude, range, height, and movement on the map or in text.







IsCatalogInMostPopularTable: catalog: 46681, numindb: 30
Update: records affected: 1



GetName: 46681 STARLINK-1775

Hit Count: updated at: Tue, 19 Jan 2021 02:35:48 GMT